Weather History for Florence, SC

Change the Weather History Date:

Wednesday, November 7, 2012

  Actual Average Record
Temperature  
Mean Temperature 49 °F 58 °F  
Max Temperature 60 °F 70 °F 81 °F (1975)
Min Temperature 37 °F 46 °F 26 °F (1967)
Degree Days  
Heating Degree Days 16 8  
Month to date heating degree days 89 51  
Since 1 July heating degree days 182 168  
Cooling Degree Days 0 1  
Month to date cooling degree days 0 7  
Year to date cooling degree days 2308 2049  
Moisture  
Dew Point 33 °F    
Average Humidity 56    
Maximum Humidity 76    
Minimum Humidity 36    
Precipitation  
Precipitation 0.00 in 0.09 in 1.59 in (2006)
Month to date precipitation 0.02 0.62  
Year to date precipitation 35.88 37.85  
Sea Level Pressure  
Sea Level Pressure 29.90 in    
Wind  
Wind Speed 6 mph (NNW)    
Max Wind Speed 13 mph    
Max Gust Speed 17 mph    
Visibility 10 miles    
Events      
T = Trace of Precipitation, MM = Missing Value Source: NWS Daily Summary

Daily Weather History Graph

Daily Weather History Graph

Search for Another Location

Airport:

Trip Planner

Search our weather history database for the weather conditions in past years. The results will help you decide how hot, cold, wet, or windy it might be!

Date:

Astronomy

Nov. 07, 2012 Rise Set
Actual Time 6:44 AM EST 5:20 PM EST
Civil Twilight 6:18 AM EST 5:46 PM EST
Nautical Twilight 5:48 AM EST 6:16 PM EST
Astronomical Twilight 5:19 AM EST 6:45 PM EST
Moon No Moon Rise 1:11 PM EST (11/7)
Length of Visible Light 11h 27m
Length of Day
10h 35m
Last Quarter, 43% of the Moon is Illuminated
Nov 7
Last Quarter
Nov 13
New
Nov 20
First Quarter
Nov 28
Full
Dec 6
Last Quarter

Hourly Weather History & Observations

Time (EST) Temp. Windchill Dew Point Humidity Pressure Visibility Wind Dir Wind Speed Gust Speed Precip Events Conditions
12:53 AM 44.1 °F 40.1 °F 32.0 °F 63% 29.91 in 10.0 mi North 6.9 mph - N/A   Overcast
1:53 AM 44.1 °F 40.1 °F 30.9 °F 60% 29.91 in 10.0 mi North 6.9 mph - N/A   Overcast
2:40 AM 42.8 °F 38.0 °F 30.2 °F 61% 29.90 in 10.0 mi North 8.1 mph - N/A   Overcast
2:53 AM 43.0 °F 38.8 °F 30.9 °F 62% 29.90 in 10.0 mi NNW 6.9 mph - N/A   Overcast
3:45 AM 41.0 °F 35.8 °F 30.2 °F 65% 29.89 in 10.0 mi NNW 8.1 mph - N/A   Mostly Cloudy
3:53 AM 39.9 °F 33.9 °F 30.9 °F 70% 29.89 in 10.0 mi NNW 9.2 mph - N/A   Scattered Clouds
4:53 AM 39.0 °F 33.4 °F 30.9 °F 73% 29.89 in 10.0 mi NNW 8.1 mph - N/A   Clear
5:53 AM 37.9 °F 32.1 °F 30.9 °F 76% 29.88 in 10.0 mi NNW 8.1 mph - N/A   Clear
6:53 AM 37.0 °F 32.4 °F 30.9 °F 79% 29.91 in 10.0 mi NNW 5.8 mph - N/A   Clear
7:53 AM 39.0 °F 34.0 °F 30.9 °F 73% 29.92 in 10.0 mi NNW 6.9 mph - N/A   Clear
8:53 AM 44.1 °F 40.8 °F 32.0 °F 63% 29.93 in 10.0 mi NNW 5.8 mph - N/A   Scattered Clouds
9:53 AM 48.0 °F - 34.0 °F 58% 29.93 in 10.0 mi NNW 6.9 mph - N/A   Clear
10:53 AM 55.0 °F - 36.0 °F 49% 29.91 in 10.0 mi North 8.1 mph - 0.03 in   Mostly Cloudy
11:53 AM 57.0 °F - 36.0 °F 45% 29.88 in 10.0 mi North 3.5 mph - N/A   Mostly Cloudy
12:53 PM 57.0 °F - 33.1 °F 40% 29.86 in 10.0 mi North 8.1 mph - N/A   Clear
1:53 PM 59.0 °F - 33.1 °F 38% 29.84 in 10.0 mi North 5.8 mph - N/A   Mostly Cloudy
2:53 PM 59.0 °F - 32.0 °F 36% 29.84 in 10.0 mi NNW 8.1 mph - N/A   Clear
3:53 PM 59.0 °F - 32.0 °F 36% 29.85 in 10.0 mi NNW 9.2 mph - N/A   Clear
4:32 PM 57.2 °F - 33.8 °F 41% 29.86 in 10.0 mi NNW 6.9 mph - N/A   Partly Cloudy
4:53 PM 55.9 °F - 33.1 °F 42% 29.86 in 10.0 mi North 8.1 mph - N/A   Clear
5:53 PM 51.1 °F - 34.0 °F 52% 29.88 in 10.0 mi Calm Calm - N/A   Clear
6:53 PM 46.0 °F 44.8 °F 35.1 °F 66% 29.90 in 9.0 mi NNW 3.5 mph - N/A   Clear
7:53 PM 43.0 °F 40.3 °F 34.0 °F 71% 29.91 in 8.0 mi NW 4.6 mph - N/A   Clear
8:53 PM 41.0 °F 38.0 °F 33.1 °F 73% 29.93 in 8.0 mi NW 4.6 mph - N/A   Clear
9:53 PM 39.9 °F - 32.0 °F 73% 29.94 in 9.0 mi Calm Calm - N/A   Clear
10:53 PM 43.0 °F 38.8 °F 35.1 °F 74% 29.95 in 10.0 mi West 6.9 mph - N/A   Clear
11:53 PM 43.0 °F 39.5 °F 35.1 °F 74% 29.96 in 10.0 mi WNW 5.8 mph - N/A   Clear